Location: Big Prairie
(40.6673°N, 82.0952°W)
Time: 21:30:06
(UTC+00:00)

Meteor 1-26 Rocket - Pass Details

Date: 04 July 2022
Orbit: 810 x 925 km, 81.3° (Epoch: 07 August)

Event Time Altitude Azimuth Distance (km) Brightness Sun altitude
Rises 07:28:06 0° 340° (NNW) 3,494 8.0 -21.0°
Reaches altitude 10° 07:30:46 10° 330° (NNW) 2,568 7.1 -20.8°
Maximum altitude 07:35:49 31° 270° (W) 1,532 5.3 -20.3°
Enters shadow 07:37:00 29° 249° (WSW) 1,608 5.2 -20.2°
